Flag for U.S.A. Weather past 2 weeks in Oceanside, California, U.S.A.

Now
70 °F

Sunny.


Feels Like: 72 °F
Forecast: 57 / 77 °F
Wind: 6 mph from West

Location: Oceanside Weather Reporting Station

Current Time: Oct 21, 2014 at 5:25:03 PM

Latest Report: Oct 21, 2014 at 4:52 PM


Visibility: 9 mi

Pressure: 29.82 "Hg

Humidity: 76%

Dew point: 62 °F

Location of OceansideLocation

Historic Weather in Oceanside — Graph

°F

Oceanside temperature yesterday

Maximum temperature yesterday: 74 °F (at 2:52 PM)
Minimum temperature yesterday: 60 °F (at 2:52 AM)
Average temperature yesterday: 67 °F

Past Weeks' High & Low Weather Summary

 TemperatureHumidityPressure
High87 °F (Oct 7, 1:52 PM)94% (Oct 12, 4:52 AM)30.02 "Hg (Oct 12, 4:52 AM)
Low53 °F (Oct 8, 6:52 AM)24% (Oct 7, 10:52 AM)29.80 "Hg (Oct 8, 4:52 PM)
Average68 °F73%29.91 "Hg
* Reported Oct 6 3:52 PM — Oct 21 3:52 PM, Oceanside, Weather by CustomWeather, © 2014

Note: Actual official high and low records may vary slightly from our data, if they occured in-between our weather recording intervals... More about our weather records

Advertising

Oceanside weather history for previous 24 hours

 ConditionsComfort  
Time TempWeatherWind HumidityBarometerVisibility
3:52 PM
Oct 21
73 °FSunny.8 mph69%29.82 "Hg10 mi
2:52 PM75 °FSunny.10 mph62%29.82 "Hg10 mi
1:52 PM75 °FSunny.12 mph62%29.85 "Hg10 mi
12:52 PM74 °FSunny.13 mph62%29.87 "Hg10 mi
11:52 AM74 °FSunny.9 mph62%29.89 "Hg10 mi
10:52 AM74 °FSunny.3 mph62%29.90 "Hg9 mi
9:52 AM68 °FOvercast.No wind76%29.91 "Hg8 mi
8:52 AM69 °FOvercast.5 mph73%29.91 "Hg8 mi
7:52 AM68 °FOvercast.5 mph76%29.90 "Hg8 mi
6:52 AM67 °FOvercast.5 mph79%29.89 "Hg9 mi
5:52 AM68 °FOvercast.5 mph76%29.89 "Hg10 mi
4:52 AM68 °FOvercast.8 mph78%29.87 "Hg10 mi
3:52 AM68 °FOvercast.6 mph78%29.88 "Hg10 mi
2:52 AM69 °FOvercast.No wind76%29.89 "Hg10 mi
1:52 AM68 °FOvercast.No wind78%29.89 "Hg10 mi
12:52 AM69 °FOvercast.No wind76%29.89 "Hg10 mi
11:52 PM
Oct 20
69 °FOvercast.No wind76%29.90 "Hg10 mi
10:52 PM69 °FOvercast.No wind76%29.91 "Hg10 mi
9:52 PM69 °FOvercast.No wind76%29.90 "Hg10 mi
8:52 PM69 °FOvercast.No wind76%29.90 "Hg10 mi
7:52 PM69 °FOvercast.6 mph76%29.89 "Hg10 mi
6:52 PM69 °FOvercast.5 mph76%29.88 "Hg10 mi
5:52 PM70 °FPassing clouds.3 mph73%29.86 "Hg10 mi
Weather by CustomWeather, © 2014

See weather overviewHow to use our weather pages